Temperature
-10 -10 -10 -10 -10 -10 -11 -11 -11 -11 -11 -10 -10 -9 -9 -9 -8 -8 -8 -7 -6 -6 -5 -4 -3 -2 -1 -0 1 2 4 5 7 8 10 11 12 13
-9 -10 -10 -10 -10 -10 -10 -11 -11 -11 -11 -10 -10 -10 -9 -9 -9 -8 -8 -7 -6 -6 -5 -4 -3 -2 -2 -1 0 1 3 5 6 8 9 10 11 12
-9 -9 -10 -10 -10 -10 -10 -10 -11 -11 -11 -11 -10 -10 -9 -9 -8 -8 -7 -7 -6 -5 -5 -4 -4 -3 -2 -1 0 1 2 4 6 7 9 10 11 12
-9 -9 -9 -10 -10 -10 -10 -10 -11 -11 -11 -11 -10 -10 -10 -9 -9 -8 -8 -7 -6 -5 -5 -4 -4 -3 -2 -1 -0 1 2 3 5 7 8 10 11 12
-9 -9 -9 -10 -10 -10 -10 -10 -11 -11 -11 -11 -11 -10 -10 -10 -9 -9 -8 -7 -7 -6 -5 -4 -4 -3 -2 -1 -0 1 2 3 5 6 7 9 10 11
-9 -9 -9 -9 -10 -10 -10 -10 -10 -11 -11 -11 -11 -11 -11 -10 -10 -10 -8 -7 -6 -6 -5 -5 -4 -3 -2 -1 -0 1 2 3 4 6 7 9 10 11
-9 -9 -9 -9 -10 -10 -10 -10 -10 -11 -11 -11 -11 -11 -11 -11 -11 -11 -10 -9 -7 -6 -6 -5 -4 -3 -2 -1 -1 0 2 3 4 6 7 8 10 11
-9 -9 -9 -9 -9 -10 -10 -10 -10 -11 -11 -11 -11 -12 -11 -11 -11 -11 -11 -11 -9 -7 -7 -5 -4 -3 -2 -1 -0 1 2 3 4 5 7 8 9 10
-9 -9 -9 -9 -9 -10 -10 -10 -10 -11 -11 -11 -12 -12 -12 -12 -12 -11 -11 -11 -10 -8 -8 -5 -4 -4 -2 -1 -0 0 1 2 4 5 7 8 9 10
-9 -9 -9 -10 -9 -9 -10 -10 -10 -11 -11 -11 -12 -12 -12 -12 -12 -11 -11 -11 -9 -8 -9 -8 -5 -4 -2 -1 -0 1 1 2 4 5 6 8 9 10
-9 -9 -10 -10 -9 -9 -10 -10 -10 -11 -11 -11 -11 -12 -12 -11 -12 -11 -11 -11 -10 -8 -8 -8 -6 -4 -2 -1 -0 1 1 2 4 5 6 8 9 10
-9 -9 -10 -10 -10 -9 -10 -10 -11 -11 -11 -11 -11 -11 -11 -11 -11 -11 -11 -12 -11 -10 -9 -9 -7 -6 -4 -1 -0 1 2 3 4 5 6 7 9 9
-10 -10 -10 -10 -10 -10 -10 -11 -11 -11 -11 -12 -12 -11 -11 -11 -11 -11 -11 -12 -11 -11 -9 -9 -8 -7 -6 -4 -1 0 1 3 4 5 6 7 8 9
-10 -10 -10 -10 -10 -10 -11 -11 -11 -11 -12 -12 -12 -12 -12 -11 -11 -11 -11 -11 -11 -10 -9 -9 -9 -8 -7 -6 -2 0 1 3 4 5 6 7 8 9
-10 -10 -10 -10 -11 -11 -11 -11 -12 -12 -12 -12 -12 -12 -12 -12 -11 -11 -10 -10 -10 -9 -9 -9 -8 -7 -7 -6 -4 -1 1 2 3 4 5 6 7 8
-10 -10 -10 -10 -11 -11 -11 -11 -12 -12 -12 -13 -12 -12 -12 -12 -11 -11 -11 -10 -9 -8 -8 -8 -8 -7 -6 -5 -4 -2 -0 2 3 4 5 6 7 8
-10 -10 -10 -10 -10 -11 -11 -11 -12 -12 -12 -12 -12 -12 -12 -12 -12 -11 -11 -11 -10 -9 -8 -7 -7 -6 -5 -4 -3 -2 -0 1 3 4 5 6 7 8
-10 -10 -10 -11 -11 -11 -11 -12 -12 -12 -12 -13 -13 -13 -12 -12 -12 -11 -11 -11 -10 -9 -8 -7 -6 -5 -5 -4 -3 -1 -0 1 2 4 5 6 7 8
-10 -10 -11 -11 -11 -11 -12 -12 -12 -12 -12 -12 -13 -13 -12 -12 -12 -12 -11 -11 -10 -9 -8 -8 -7 -6 -5 -4 -2 -2 -0 1 2 4 5 6 7 7
-10 -11 -11 -11 -11 -11 -11 -12 -12 -12 -12 -12 -13 -12 -12 -12 -12 -12 -11 -11 -10 -9 -8 -7 -7 -6 -6 -4 -3 -1 -1 1 2 3 4 5 6 7
-10 -11 -11 -11 -11 -11 -12 -12 -12 -12 -12 -12 -12 -12 -12 -12 -12 -12 -11 -11 -10 -9 -8 -7 -6 -5 -5 -4 -3 -1 -0 1 2 3 4 5 6 7
-10 -11 -11 -11 -11 -11 -11 -12 -12 -12 -12 -12 -12 -12 -12 -12 -12 -11 -11 -10 -10 -9 -8 -7 -6 -5 -4 -4 -3 -2 -1 0 1 3 4 5 6 6
-10 -11 -11 -11 -11 -11 -11 -12 -12 -12 -12 -12 -12 -12 -12 -12 -12 -11 -11 -10 -9 -9 -8 -7 -6 -5 -4 -4 -3 -2 -1 0 1 2 3 4 6 7
Wind_Speed
9 10 9 9 8 9 9 9 9 14 16 11 8 9 10 12 17 14 14 20 22 22 22 22 23 23 23 23 23 22 22 21 20 18 17 17 20 24
9 10 10 9 8 9 9 9 9 10 12 11 10 12 12 12 17 15 15 21 21 21 21 22 23 22 23 22 23 22 22 21 21 19 18 17 17 20
11 10 12 11 9 9 9 9 9 9 12 13 10 10 10 11 11 12 14 13 14 20 22 22 22 22 22 22 22 23 22 22 21 20 19 17 17 18
12 12 13 11 11 10 9 10 9 8 9 14 12 10 10 10 10 11 11 11 11 18 21 21 22 22 22 22 22 22 21 21 21 20 19 18 17 16
13 13 14 12 13 12 11 10 9 9 8 10 12 9 8 9 10 11 11 8 11 15 18 17 18 19 20 21 22 22 21 21 20 20 18 17 16 15
13 13 13 13 14 14 12 11 9 9 8 9 10 9 8 8 8 10 11 9 10 12 11 13 16 18 19 20 22 21 20 20 20 20 18 16 15 14
12 12 13 16 19 16 13 10 8 7 8 8 9 10 9 9 8 7 11 11 11 6 7 9 10 9 11 15 18 20 20 20 20 20 19 17 15 15
11 11 12 15 18 21 22 19 14 10 8 7 8 9 10 9 9 10 10 10 7 4 7 12 9 9 9 8 15 19 19 20 20 20 19 18 16 15
10 10 11 12 16 11 16 18 16 18 16 9 7 9 9 9 9 10 9 10 10 9 9 10 6 9 9 10 17 19 19 19 19 19 19 17 16 15
9 10 11 12 13 14 10 9 9 10 12 9 8 9 9 9 9 8 9 10 10 8 6 6 6 7 9 9 16 18 18 17 18 18 18 17 15 15
9 9 10 11 19 20 9 7 7 8 11 14 15 14 16 16 13 7 7 8 9 5 3 4 5 6 7 7 9 14 15 16 16 17 17 16 15 14
7 8 14 16 19 17 6 5 8 8 7 8 10 12 10 11 14 6 6 7 6 5 3 3 4 4 5 4 5 6 7 11 14 15 16 16 15 11
7 7 8 18 18 16 11 6 10 8 4 6 7 7 7 6 6 6 6 6 7 7 5 4 4 4 4 5 5 5 5 5 7 9 13 15 16 14
7 7 9 17 16 15 11 12 14 11 5 6 6 6 7 7 7 7 8 8 9 11 10 8 6 6 5 5 5 5 5 4 5 6 7 11 14 14
7 12 15 16 14 10 12 14 10 5 5 6 7 7 6 7 8 7 8 8 9 10 10 10 10 9 8 7 6 5 4 3 3 4 6 8 9 10
7 9 12 13 10 10 10 8 5 6 6 6 6 6 6 7 7 7 7 7 7 7 7 9 10 10 9 10 9 9 6 4 3 3 4 5 6 8
5 3 4 6 6 5 5 5 5 5 6 6 6 6 7 7 8 7 6 6 6 7 7 6 7 9 10 8 7 8 7 6 6 5 4 5 6 9
6 4 5 5 6 6 6 6 6 6 6 6 6 6 7 7 8 8 7 7 7 7 7 7 6 4 3 6 10 8 6 5 4 4 4 6 7 8
3 4 5 5 6 6 6 6 6 6 6 6 6 6 7 7 8 8 8 8 8 7 7 6 5 3 3 3 4 8 5 4 3 3 4 5 7 8
3 4 5 5 6 6 6 6 6 6 5 5 5 6 6 7 7 8 8 9 8 8 7 6 5 4 4 4 3 3 6 4 3 3 3 3 4 7
4 4 5 5 6 6 6 6 6 6 6 5 5 6 6 6 7 8 8 12 10 7 7 7 7 9 6 3 3 3 3 3 3 3 4 6 6 6
4 5 5 5 5 5 6 6 5 5 5 5 5 5 6 6 7 8 8 8 8 8 8 7 7 5 2 2 2 3 3 2 2 3 2 3 5 7
4 5 5 5 5 5 5 6 6 6 5 5 5 5 6 6 6 7 8 8 8 8 8 6 5 3 2 1 1 1 1 2 3 5 5 7 9 13
Wind_Direction
277 280 281 283 284 282 281 283 288 302 308 307 308 304 307 302 301 305 302 297 294 289 285 281 278 275 274 273 275 277 280 283 283 280 270 255 235 224
275 277 279 282 283 282 282 281 276 282 292 298 302 303 308 310 308 309 300 300 296 292 286 282 279 276 272 271 271 272 274 277 277 275 269 260 242 228
277 278 280 281 283 285 284 280 279 280 288 297 299 302 301 304 309 309 299 292 291 292 286 280 277 274 273 271 270 268 269 271 272 270 267 260 250 233
276 276 278 282 280 282 281 279 280 279 283 297 305 307 305 306 306 307 309 305 298 294 290 282 276 272 271 269 268 266 267 268 269 268 263 259 251 241
270 272 274 276 278 280 278 276 276 285 281 289 299 300 298 305 310 309 306 295 301 299 293 284 282 277 273 268 267 263 262 263 264 265 262 259 251 241
268 268 270 271 272 276 277 271 274 279 281 286 294 302 302 304 305 313 316 313 310 305 296 297 290 285 278 270 265 263 262 262 262 261 255 250 245 238
271 271 272 279 284 285 285 277 273 272 281 289 295 302 306 313 313 308 310 313 308 293 311 303 295 285 279 272 267 261 259 257 257 255 251 245 237 232
279 279 279 284 289 295 296 296 294 287 284 281 289 295 296 297 299 302 307 313 311 308 316 302 290 280 273 264 262 259 256 253 252 248 246 240 232 227
282 285 290 289 297 288 286 291 293 295 297 293 283 280 284 287 290 294 296 296 289 292 301 291 278 279 275 270 268 259 255 252 249 244 238 233 226 221
279 279 281 283 287 288 275 272 270 278 285 289 270 268 274 277 275 283 291 293 286 279 273 278 291 286 285 275 268 257 253 251 245 237 232 227 221 217
281 281 286 281 292 301 297 284 283 280 292 297 298 298 300 303 303 305 305 304 303 295 268 277 292 297 284 269 264 257 252 250 242 233 226 220 213 209
285 284 298 302 305 313 301 280 285 283 288 297 301 304 301 301 307 302 286 291 295 293 282 300 289 309 303 283 275 266 258 250 238 229 220 211 200 199
298 294 295 309 316 321 323 300 299 313 295 290 291 293 294 290 289 283 268 261 268 265 276 298 287 289 283 299 301 283 268 257 234 222 215 205 195 192
299 295 297 313 323 326 324 319 324 331 314 307 306 304 304 301 295 288 278 266 256 260 265 264 264 268 281 289 285 297 293 260 230 213 204 198 194 194
299 310 319 326 330 328 323 327 335 326 309 309 308 305 300 293 295 296 291 282 275 266 263 256 255 260 257 258 270 289 300 288 260 213 198 196 191 183
304 314 324 329 328 324 325 326 319 306 311 303 302 302 304 305 303 304 304 307 302 290 271 261 257 255 253 252 255 265 268 267 273 246 203 194 184 183
316 315 317 321 324 319 317 312 307 311 314 308 304 308 311 313 311 310 303 306 299 301 305 299 275 256 245 242 248 255 258 256 252 247 202 186 185 183
337 321 318 318 320 319 318 315 312 312 309 306 306 308 311 313 312 312 311 308 306 303 301 304 309 298 259 241 232 249 259 254 251 238 203 180 181 180
330 306 306 309 311 311 309 306 305 306 306 305 306 308 310 312 314 315 317 316 310 305 302 300 297 285 278 283 263 233 243 254 240 227 197 172 175 177
298 294 299 303 306 306 307 307 306 307 308 308 306 308 309 313 316 317 316 316 313 311 311 305 294 276 255 264 287 280 258 245 225 209 173 144 147 148
301 299 298 300 303 304 307 306 304 304 306 308 308 308 309 312 314 315 315 318 320 313 311 308 297 297 280 256 260 277 282 273 227 201 161 152 152 154
291 296 298 299 302 301 305 306 305 304 305 306 306 307 308 309 312 314 317 318 316 312 306 304 305 306 277 241 260 283 306 340 45 79 107 164 161 161
284 291 295 298 299 298 301 304 304 304 303 304 309 309 310 312 313 315 317 318 318 319 320 321 324 329 323 276 275 303 13 53 79 83 66 87 109 115
Height
1457 1453 1448 1443 1439 1434 1429 1424 1419 1409 1400 1394 1390 1385 1382 1378 1375 1373 1370 1369 1369 1368 1369 1369 1370 1372 1373 1375 1377 1380 1383 1386 1391 1396 1402 1408 1414 1421
1451 1447 1442 1437 1433 1428 1424 1419 1414 1409 1399 1391 1387 1382 1378 1374 1370 1367 1364 1363 1361 1361 1361 1362 1363 1365 1367 1368 1371 1373 1376 1380 1384 1389 1395 1401 1407 1414
1445 1441 1436 1432 1427 1422 1418 1413 1409 1404 1396 1388 1383 1378 1374 1369 1365 1361 1358 1356 1354 1354 1354 1355 1356 1357 1359 1361 1364 1366 1370 1373 1377 1382 1388 1394 1401 1407
1439 1434 1430 1425 1421 1416 1411 1407 1403 1398 1393 1385 1378 1374 1369 1365 1360 1356 1353 1350 1348 1347 1347 1347 1348 1349 1351 1353 1356 1359 1362 1366 1370 1375 1381 1387 1394 1400
1432 1428 1423 1419 1413 1409 1405 1400 1396 1392 1387 1382 1374 1369 1365 1360 1355 1351 1348 1345 1342 1341 1340 1340 1340 1342 1343 1346 1349 1352 1355 1359 1364 1368 1374 1380 1387 1393
1426 1422 1417 1412 1407 1402 1398 1394 1389 1385 1381 1376 1371 1365 1360 1356 1352 1347 1342 1339 1336 1334 1333 1333 1333 1334 1336 1338 1341 1344 1347 1351 1356 1362 1367 1374 1380 1387
1419 1415 1410 1406 1401 1397 1392 1387 1383 1379 1375 1371 1366 1361 1356 1352 1348 1343 1339 1333 1330 1329 1327 1326 1326 1326 1327 1330 1333 1336 1340 1344 1349 1355 1361 1367 1374 1381
1413 1408 1404 1399 1394 1390 1386 1383 1379 1375 1370 1366 1361 1357 1352 1349 1345 1341 1336 1331 1326 1325 1322 1320 1320 1319 1321 1323 1326 1329 1333 1337 1342 1348 1354 1361 1368 1375
1407 1402 1397 1393 1388 1383 1379 1375 1372 1369 1366 1362 1357 1352 1348 1345 1341 1336 1333 1328 1324 1321 1318 1313 1314 1313 1314 1315 1318 1322 1326 1330 1335 1341 1348 1354 1361 1368
1401 1396 1391 1386 1382 1377 1372 1368 1365 1362 1359 1355 1352 1347 1344 1340 1337 1333 1329 1324 1319 1317 1315 1310 1308 1307 1308 1309 1312 1315 1319 1323 1328 1334 1341 1348 1355 1362
1395 1391 1386 1381 1377 1373 1368 1363 1360 1357 1353 1350 1347 1342 1339 1335 1332 1328 1324 1320 1315 1312 1311 1308 1304 1302 1302 1303 1306 1309 1312 1317 1322 1328 1334 1342 1349 1357
1389 1385 1381 1376 1372 1368 1363 1359 1355 1351 1347 1343 1340 1336 1333 1329 1326 1323 1320 1316 1313 1309 1307 1305 1302 1300 1298 1298 1300 1303 1307 1311 1316 1322 1328 1335 1343 1351
1384 1379 1375 1371 1368 1363 1359 1355 1351 1347 1342 1338 1334 1330 1327 1324 1321 1318 1315 1312 1309 1306 1304 1303 1300 1298 1297 1295 1295 1298 1301 1305 1310 1315 1322 1330 1337 1345
1379 1375 1371 1367 1363 1359 1355 1351 1347 1343 1338 1334 1330 1326 1322 1318 1315 1313 1310 1307 1304 1301 1299 1299 1297 1296 1295 1292 1291 1293 1296 1300 1305 1310 1317 1324 1332 1340
1375 1371 1367 1363 1358 1354 1351 1347 1343 1339 1335 1331 1326 1322 1318 1315 1311 1307 1304 1301 1299 1296 1294 1293 1292 1291 1291 1290 1288 1289 1292 1295 1300 1306 1312 1319 1326 1334
1371 1367 1363 1359 1355 1351 1347 1343 1339 1336 1332 1328 1324 1320 1315 1311 1307 1304 1300 1296 1293 1291 1290 1289 1287 1287 1286 1285 1285 1285 1288 1291 1295 1301 1308 1315 1322 1330
1367 1363 1359 1355 1351 1347 1344 1340 1337 1333 1329 1325 1321 1317 1313 1308 1304 1301 1297 1294 1290 1287 1285 1284 1283 1282 1282 1282 1282 1282 1284 1288 1292 1297 1303 1310 1317 1325
1363 1359 1355 1352 1348 1345 1341 1337 1334 1330 1327 1323 1319 1315 1311 1306 1302 1298 1294 1291 1287 1284 1282 1280 1279 1278 1279 1278 1279 1279 1281 1284 1288 1292 1298 1305 1313 1321
1360 1356 1353 1349 1346 1342 1339 1335 1332 1328 1325 1321 1317 1313 1309 1305 1301 1296 1292 1289 1285 1282 1280 1279 1277 1276 1276 1275 1276 1277 1278 1281 1285 1289 1295 1301 1308 1316
1356 1353 1350 1347 1344 1340 1337 1333 1329 1326 1322 1319 1315 1311 1307 1303 1299 1295 1291 1287 1284 1281 1279 1277 1276 1275 1274 1274 1274 1275 1276 1278 1281 1285 1290 1298 1307 1315
1353 1350 1347 1344 1341 1338 1335 1331 1328 1324 1321 1317 1314 1310 1306 1302 1298 1294 1290 1287 1283 1280 1277 1275 1275 1274 1273 1274 1274 1273 1275 1276 1278 1282 1288 1295 1302 1310
1350 1348 1345 1342 1339 1336 1333 1329 1326 1323 1319 1316 1312 1309 1305 1302 1298 1294 1290 1286 1282 1280 1277 1275 1274 1273 1273 1272 1271 1272 1273 1274 1277 1281 1287 1292 1297 1304
1348 1345 1343 1340 1337 1334 1331 1328 1325 1321 1318 1315 1312 1308 1305 1301 1297 1293 1290 1286 1283 1279 1277 1275 1274 1273 1272 1272 1271 1271 1272 1274 1276 1280 1285 1292 1298 1305